Flag for Mexico

Past Weather in 26°03'03.0"N, 98°17'52.4"W, Mexico — Yesterday and Last 2 Weeks

Now
89 °F

Sunny.


Feels Like: 97 °F
Forecast: 97 / 78 °F
Wind: 16 mph from Southeast

Location: Miller International Airport
Current Time: Sep 26, 2020 at 8:02:23 pm
Latest Report: Sep 26, 2020 at 6:53 pm
Visibility: 10 mi
Pressure29.78 "Hg
Humidity: 59%
Dew Point: 73 °F
Location of 26°03'03.0"N, 98°17'52.4"WLocation

Past Weather in 26°03'03.0"N, 98°17'52.4"W — Graph

°F

26°03'03.0"N, 98°17'52.4"W Temperature Yesterday

Maximum temperature yesterday: 93 °F (at 3:53 pm)
Minimum temperature yesterday: 75 °F (at 11:53 pm)
Average temperature yesterday: 82 °F

High & Low Weather Summary for the Past Weeks

 TemperatureHumidityPressure
High98 °F (Sep 13, 2:53 pm)91% (Sep 15, 6:53 pm)30.04 "Hg (Sep 15, 6:53 pm)
Low67 °F (Sep 21, 4:53 am)37% (Sep 23, 4:53 pm)29.78 "Hg (Sep 26, 5:53 pm)
Average81 °F70%29.93 "Hg
* Reported Sep 11 6:53 pm — Sep 26 6:53 pm, 26°03'03.0"N, 98°17'52.4"W. Weather by CustomWeather, © 2020

Note: Actual official high and low records may vary slightly from our data, if they occured in-between our weather recording intervals... More about our weather records

26°03'03.0"N, 98°17'52.4"W Weather History for the Previous 24 Hours

Scroll right to see more
 ConditionsComfort  
Time TempWeatherWind HumidityBarometerVisibility
6:53 pm
Sat, Sep 26
89 °FSunny.16 mph59%29.78 "Hg10 mi
5:53 pm92 °FSunny.13 mph54%29.78 "Hg10 mi
4:53 pm94 °FScattered clouds.16 mph48%29.78 "Hg10 mi
3:53 pm96 °FScattered clouds.13 mph40%29.80 "Hg10 mi
2:53 pm95 °FPassing clouds.14 mph43%29.84 "Hg10 mi
1:53 pm93 °FScattered clouds.13 mph46%29.87 "Hg10 mi
12:53 pm92 °FSunny.15 mph47%29.90 "Hg10 mi
11:53 am90 °FPassing clouds.15 mph50%29.93 "Hg10 mi
10:53 am87 °FSunny.17 mph59%29.94 "Hg10 mi
9:53 am84 °FSunny.12 mph70%29.94 "Hg10 mi
8:53 am78 °FFog.9 mph87%29.93 "Hg6 mi
7:53 am75 °FFog.7 mph90%29.92 "Hg5 mi
6:53 am75 °FClear.7 mph88%29.91 "Hg7 mi
5:53 am75 °FClear.7 mph90%29.90 "Hg7 mi
4:53 am75 °FClear.7 mph90%29.89 "Hg8 mi
3:53 am76 °FPassing clouds.8 mph88%29.90 "Hg9 mi
2:53 am75 °FPassing clouds.8 mph88%29.90 "Hg9 mi
2:26 am75 °FPassing clouds.8 mph88%29.92 "Hg9 mi
1:53 am75 °FPassing clouds.8 mph85%29.91 "Hg10 mi
12:53 am74 °FClear.8 mph85%29.92 "Hg10 mi
11:53 pm
Fri, Sep 25
75 °FClear.6 mph79%29.93 "Hg10 mi
10:53 pm79 °FClear.8 mph67%29.93 "Hg10 mi
9:53 pm80 °FClear.9 mph64%29.93 "Hg10 mi
8:53 pm82 °FClear.10 mph60%29.91 "Hg10 mi
Weather by CustomWeather, © 2020

See weather overview